Overview Statistics Trail Chart Weather Telemetry Raw packets
 

This is the latest recevied weather packets stored in our database for station/object KW4UJ. If no packets are shown the sender has not sent any weather packets the latest 10 day(s).

<< 19 20 21 22 23 24 25 >>
Time Temp. Humidity Pressure Rain* Wind** Luminosity Snow
1788504980 21.11° C 99% 1014.1 hPa 0 mm - 0 W/m² -
1788504678 21.11° C 99% 1014 hPa 0 mm - 0 W/m² -
1788504373 21.11° C 99% 1014 hPa 0 mm - 0 W/m² -
1788504073 21.11° C 99% 1013.7 hPa 0 mm - 0 W/m² -
1788503769 21.11° C 99% 1013.5 hPa 0 mm - 0 W/m² -
1788503464 21.11° C 99% 1013.4 hPa 0 mm - 0 W/m² -
1788503161 21.11° C 99% 1013.3 hPa 0 mm - 0 W/m² -
1788502856 21.11° C 99% 1013.2 hPa 0 mm - 0 W/m² -
1788502551 21.11° C 99% 1013 hPa 0 mm - 0 W/m² -
1788502248 21.11° C 99% 1012.9 hPa 0 mm - 0 W/m² -
1788501944 21.11° C 99% 1012.5 hPa 0 mm - 0 W/m² -
1788501639 21.11° C 99% 1012.8 hPa 0 mm - 0 W/m² -
1788501334 21.11° C 99% 1012.5 hPa 0 mm - 0 W/m² -
1788501030 21.11° C 99% 1012.5 hPa 0 mm - 0 W/m² -
1788500725 21.11° C 99% 1012.7 hPa 0 mm - 0 W/m² -
1788500421 21.11° C 99% 1012.8 hPa 0 mm - 0 W/m² -
1788500120 21.11° C 99% 1013.1 hPa 0 mm - 0 W/m² -
1788499816 21.11° C 99% 1013.3 hPa 0 mm - 0 W/m² -
1788499512 21.11° C 99% 1013.7 hPa 1.27 mm - 0 W/m² -
1788499208 21.11° C 99% 1013.6 hPa 1.27 mm - 0 W/m² -
1788498905 21.11° C 99% 1013.9 hPa 1.78 mm - 0 W/m² -
1788498603 21.11° C 99% 1014.2 hPa 1.78 mm - 0 W/m² -
1788498306 21.11° C 99% 1014.5 hPa 3.05 mm - 0 W/m² -
1788497995 21.11° C 99% 1014.4 hPa 1.27 mm - 0 W/m² -
1788493677 22.78° C 97% 1017.1 hPa 138.68 mm - 0 W/m² -

* Rain latest hour (hover to see other rain measurements)
** Current wind speed in m/s (hover to see current wind gust speed)